User: anonymous   Login
Location: Melbourne
(37.8170°S, 144.9670°E)
Time: 15:38:27
(UTC+11:00)
Language:

Aureole 2 Rocket - Orbit

View from above orbital plane
View from above orbital plane
View from above satellite
View from above satellite

Ground track
Ground track

The orbit data is extracted from the following two-line orbital elements,

1 07004U 73107B   14326.53158916  .00043145  00000-0  10787-2 0  7825
2 07004 073.9498 260.4468 0280313 006.2035 114.0595 15.08413341 94183
Epoch (UTC): 22 November 2014 12:45:29
Eccentricity: 0.0280313
inclination: 73.9498°
perigee height: 347 km
apogee height: 735 km
right ascension of ascending node: 260.4468°
argument of perigee: 6.2035°
revolutions per day: 15.08413341
mean anomaly at epoch: 114.0595°
orbit number at epoch: 9418

The dashed part of the orbit path shows where the satellite is in the earth's shadow,  

DLR